Regional Weather Roundup
Issued by NWS Sioux Falls, SD

Home | Current Version | Previous Version | Text Only | Print | Product List | Glossary On
Versions: 1 2 3 4 5 6 7 8 9 10 11 12 13 14 15 16 17 18 19 20 21 22 23 24 25 26 27 28 29 30 31 32 33 34 35 36 37 38 39 40 41 42 43 44 45 46 47 48 49 50
000
ASUS43 KFSD 181110
RWRFSD

WEATHER ROUNDUP FOR SE SOUTH DAKOTA/SW MINNESOTA/NW IOWA
NATIONAL WEATHER SERVICE SIOUX FALLS SD
500 AM CST MON DEC 18 2017

NOTE: "FAIR" INDICATES FEW OR NO CLOUDS BELOW 12,000 FEET WITH NO
SIGNIFICANT WEATHER AND OR OBSTRUCTIONS TO VISIBILITY.


SDZ038>040-050-052>070-181200-
SOUTHEAST SOUTH DAKOTA

CITY           SKY/WX    TMP DP  RH WIND       PRES   REMARKS
BROOKINGS      CLEAR     27  24  89 S7        29.78F WCI  19
CHAMBERLAIN    CLOUDY    27  26  96 CALM      29.81F
HURON          CLOUDY    25  23  92 MISG      29.77F
MADISON        FAIR      28  28 100 SW15      29.78F WCI  17
MITCHELL       CLOUDY    29  26  89 SW9       29.81F WCI  20
SIOUX FALLS    CLOUDY    28  25  88 SW6       29.81F WCI  22
WINNER         FAIR      32  23  69 W8        29.82F WCI  25
YANKTON        PTCLDY    22  20  92 NE3       29.83F
$$

MNZ071-072-080-081-089-090-097-098-181200-
SOUTHWEST MINNESOTA

CITY           SKY/WX    TMP DP  RH WIND       PRES   REMARKS
FAIRMONT       CLEAR     24  23  96 S8        29.86F FOG     WCI  15
JACKSON        PTCLDY    25  23  93 S7        29.84F FOG     WCI  17
LUVERNE        CLOUDY    19  18  93 S5        29.83F WCI  13
MARSHALL       CLOUDY    29  26  89 S10       29.78F WCI  20
MONTEVIDEO     CLOUDY    30  27  86 SW9       29.76F WCI  22
PIPESTONE      CLOUDY    27  23  86 SW10      29.78F WCI  17
REDWOOD FALLS  CLEAR     30  27  88 SW12      29.80F WCI  20
TRACY          CLOUDY    30  27  86 S10       29.78F WCI  21
WINDOM           N/A     27  16  63 SW9       29.82F WCI  17
WORTHINGTON    PTCLDY    23  22  96 S7        29.82F WCI  15
$$

IAZ001>003-012>014-020>022-031-032-NEZ013-014-SDZ071-181200-
NORTHWEST IOWA

CITY           SKY/WX    TMP DP  RH WIND       PRES   REMARKS
CHEROKEE       CLOUDY    20  20 100 CALM      29.87F FOG
DENISON        CLOUDY    25  25 100 S7        29.93S FOG     WCI  17
ESTHERVILLE    CLEAR     23  22  96 S8        29.86F FOG     WCI  14
LE MARS        CLEAR     23  21  93 SW6       29.87S WCI  16
ORANGE CITY    CLEAR     25  23  93 S7        29.85S WCI  17
SHELDON        CLEAR     23  23 100 S6        29.83F WCI  16
SIOUX CITY     CLOUDY    20  19  96 SE10      29.88F WCI   9
SPENCER        CLEAR     21  20  96 S7        29.86F FOG     WCI  12
STORM LAKE     CLOUDY    21  19  93 S9        29.87F FOG     WCI  11
$$

ABBREVIATIONS USED IN REMARKS
   TC - TEMPERATURE IN CELSIUS
  WCI - WIND CHILL INDEX
   HX - HEAT INDEX
  VSB - VISIBILITY





USA.gov is the U.S. government's official web portal to all federal, state and local government web resources and services.